FW1304 Weather Reports


Display with metric or nautical units.
time (UTC)temp
F
wind
direction
speed
MPH
gust
MPH
rain 1hr
in
rain 24hr
in
rain mn
in
humidity
%
barometer
mb
20260904193322 79 98 0.0 2.0 0.00 0.00 0.00 72 1011.0
20260904192835 79 94 0.0 4.0 0.00 0.00 0.00 73 1011.0
20260904192338 79 61 1.0 4.0 0.00 0.00 0.00 74 1011.1
20260904191839 79 42 0.0 0.0 0.00 0.00 0.00 77 1011.0
20260904191323 78 15 0.0 0.0 0.00 0.00 0.00 77 1011.1
20260904190823 78 40 0.0 1.0 0.00 0.00 0.00 78 1011.1
20260904190354 78 24 0.0 1.0 0.00 0.00 0.00 78 1011.1
20260904185824 78 30 0.0 0.0 0.00 0.00 0.00 79 1011.1
20260904185355 78 71 0.0 0.0 0.00 0.00 0.00 79 1011.2
20260904184818 77 10 0.0 0.0 0.00 0.00 0.00 78 1011.2
20260904184332 77 49 0.0 2.0 0.00 0.00 0.00 79 1011.2
20260904183838 77 25 0.0 2.0 0.00 0.00 0.00 79 1011.2
20260904183337 77 25 0.0 1.0 0.00 0.00 0.00 79 1011.3
20260904182820 77 35 0.0 1.0 0.00 0.00 0.00 79 1011.2
20260904182332 77 34 0.0 1.0 0.00 0.00 0.00 80 1011.3
20260904181833 77 32 0.0 1.0 0.00 0.00 0.00 80 1011.3
20260904181318 77 40 0.0 1.0 0.00 0.00 0.00 80 1011.3
20260904180832 76 28 0.0 0.0 0.00 0.00 0.00 82 1011.2
20260904180334 76 94 0.0 0.0 0.00 0.00 0.00 82 1011.2
20260904175844 76 124 0.0 1.0 0.00 0.00 0.00 82 1011.2
20260904175317 75 128 0.0 1.0 0.00 0.00 0.00 82 1011.2
20260904174821 75 27 0.0 2.0 0.00 0.00 0.00 82 1011.2
20260904174336 75 26 0.0 2.0 0.00 0.00 0.00 83 1011.2
20260904173838 75 93 0.0 1.0 0.00 0.00 0.00 83 1011.2
20260904173319 75 78 0.0 1.0 0.00 0.00 0.00 84 1011.2
20260904172833 75 13 0.0 2.0 0.00 0.00 0.00 85 1011.2
20260904172335 75 123 0.0 1.0 0.00 0.00 0.00 85 1011.2
20260904171835 75 33 0.0 5.0 0.00 0.00 0.00 86 1011.2
20260904171338 75 26 0.0 4.0 0.00 0.00 0.00 86 1011.0
20260904170824 75 32 0.0 4.0 0.00 0.00 0.00 87 1011.0
20260904170336 75 32 0.0 4.0 0.00 0.00 0.00 87 1011.0
20260904165818 75 11 1.0 4.0 0.00 0.00 0.00 87 1011.0
20260904165320 75 348 0.0 2.0 0.00 0.00 0.00 88 1011.0
20260904164832 75 5 0.0 2.0 0.00 0.00 0.00 88 1011.0
20260904164319 75 34 0.0 0.0 0.00 0.00 0.00 88 1010.9
20260904163823 74 34 0.0 0.0 0.00 0.00 0.00 88 1010.8
20260904163352 74 61 0.0 0.0 0.00 0.00 0.00 88 1010.7
20260904162825 74 87 0.0 0.0 0.00 0.00 0.00 88 1010.6
20260904162338 74 88 0.0 0.0 0.00 0.00 0.00 88 1010.7
20260904161841 74 82 0.0 0.0 0.00 0.00 0.00 88 1010.6
20260904161352 73 35 0.0 0.0 0.00 0.00 0.00 88 1010.6
20260904160902 73 46 0.0 0.0 0.00 0.00 0.00 87 1010.5
20260904160344 73 44 0.0 0.0 0.00 0.00 0.00 88 1010.4
20260904155823 73 41 0.0 0.0 0.00 0.00 0.00 88 1010.3
20260904155335 72 37 0.0 0.0 0.00 0.00 0.00 87 1010.3
20260904154838 72 67 0.0 0.0 0.00 0.00 0.00 88 1010.2
20260904154330 72 50 0.0 0.0 0.00 0.00 0.00 88 1010.3
20260904153829 72 91 0.0 0.0 0.00 0.00 0.00 88 1010.2
20260904153333 72 14 0.0 0.0 0.00 0.00 0.00 88 1010.2
20260904152855 72 11 0.0 0.0 0.00 0.00 0.00 88 1010.1
20260904152347 72 338 0.0 0.0 0.00 0.00 0.00 88 1010.1
20260904151828 72 13 0.0 0.0 0.00 0.00 0.00 88 1010.2
20260904151341 72 10 0.0 0.0 0.00 0.00 0.00 88 1010.1
20260904150844 72 5 0.0 0.0 0.00 0.00 0.00 88 1010.0
20260904150318 71 360 0.0 0.0 0.00 0.00 0.00 88 1010.0
20260904145828 71 10 0.0 0.0 0.00 0.00 0.00 88 1010.0
20260904145332 71 35 0.0 0.0 0.00 0.00 0.00 88 1009.9
20260904144836 71 30 0.0 0.0 0.00 0.00 0.00 88 1009.9
20260904144350 71 360 0.0 0.0 0.00 0.00 0.00 88 1009.8
20260904143830 71 360 0.0 0.0 0.00 0.00 0.00 88 1009.7
20260904143402 71 355 0.0 0.0 0.00 0.00 0.00 88 1009.7
20260904142836 71 96 0.0 0.0 0.00 0.00 0.00 88 1009.7
20260904142319 70 106 0.0 0.0 0.00 0.00 0.00 88 1009.6
20260904141821 70 106 0.0 0.0 0.00 0.00 0.00 88 1009.5
20260904141338 70 106 0.0 0.0 0.00 0.00 0.00 88 1009.5
20260904140839 70 106 0.0 0.0 0.00 0.00 0.00 88 1009.4
20260904140321 70 106 0.0 0.0 0.00 0.00 0.00 88 1009.3
20260904135832 70 107 0.0 0.0 0.00 0.00 0.00 88 1009.2
20260904135336 70 107 0.0 0.0 0.00 0.00 0.00 88 1009.1
20260904134839 70 107 0.0 0.0 0.00 0.00 0.00 88 1009.0
20260904134331 69 106 0.0 0.0 0.00 0.00 0.00 88 1009.0
20260904133901 69 103 0.0 0.0 0.00 0.00 0.00 88 1009.0
20260904133344 69 117 0.0 0.0 0.00 0.00 0.00 88 1009.1
20260904132838 69 99 0.0 0.0 0.00 0.00 0.00 88 1009.1
20260904132324 69 80 0.0 0.0 0.00 0.00 0.00 88 1009.1
20260904131822 69 78 0.0 0.0 0.00 0.00 0.00 88 1009.1
20260904131342 69 47 0.0 0.0 0.00 0.00 0.00 88 1009.0
20260904130824 69 107 0.0 0.0 0.00 0.00 0.00 88 1008.9
20260904130335 69 86 0.0 0.0 0.00 0.00 0.00 88 1009.0
20260904125818 69 86 0.0 0.0 0.00 0.00 0.00 88 1009.0
20260904125320 69 42 0.0 0.0 0.00 0.00 0.00 88 1009.0
20260904124853 69 76 0.0 0.0 0.00 0.00 0.00 88 1008.8
20260904124327 68 38 0.0 0.0 0.00 0.00 0.00 88 1008.9
20260904123835 68 17 0.0 0.0 0.00 0.00 0.00 88 1008.9
20260904123318 68 30 0.0 0.0 0.00 0.00 0.00 88 1008.8
20260904122844 68 38 0.0 0.0 0.00 0.00 0.00 88 1008.9
20260904122351 68 28 0.0 0.0 0.00 0.00 0.00 88 1008.9
20260904121834 68 16 0.0 0.0 0.00 0.00 0.00 88 1008.8
20260904121336 68 77 0.0 0.0 0.00 0.00 0.00 88 1008.7
20260904120818 68 45 0.0 0.0 0.00 0.00 0.00 88 1008.7
20260904120320 68 43 0.0 0.0 0.00 0.00 0.00 88 1008.7
20260904115831 68 49 0.0 0.0 0.00 0.00 0.00 88 1008.6
20260904115334 68 46 0.0 0.0 0.00 0.00 0.00 88 1008.4
20260904114838 68 63 0.0 0.0 0.00 0.00 0.00 88 1008.3
20260904114325 68 43 0.0 0.0 0.00 0.00 0.00 88 1008.4
20260904113832 68 89 0.0 0.0 0.00 0.00 0.00 88 1008.3
20260904113336 68 74 0.0 0.0 0.00 0.00 0.00 88 1008.4
20260904112852 68 80 0.0 0.0 0.00 0.00 0.00 88 1008.4
20260904112316 69 80 0.0 0.0 0.00 0.00 0.00 88 1008.3
20260904111816 69 82 0.0 0.0 0.00 0.00 0.00 88 1008.1
20260904111329 69 74 0.0 0.0 0.00 0.00 0.00 88 1008.1
20260904110840 69 79 0.0 0.0 0.00 0.00 0.00 88 1008.1
20260904110342 69 101 0.0 0.0 0.00 0.00 0.00 88 1008.0
20260904105825 69 90 0.0 0.0 0.00 0.00 0.00 88 1008.0
20260904105357 69 79 0.0 0.0 0.00 0.00 0.00 88 1008.0
20260904104839 69 86 0.0 0.0 0.00 0.00 0.00 88 1007.9
20260904104323 69 64 0.0 0.0 0.00 0.00 0.00 88 1007.9
20260904103823 69 87 0.0 0.0 0.00 0.00 0.00 88 1008.0
20260904103334 69 51 0.0 0.0 0.00 0.00 0.00 88 1008.0
20260904102848 69 123 0.0 1.0 0.00 0.00 0.00 88 1008.0
20260904102327 70 95 0.0 1.0 0.00 0.00 0.00 88 1008.1
20260904101831 70 50 0.0 4.0 0.00 0.00 0.00 88 1008.0
20260904101334 70 24 0.0 4.0 0.00 0.00 0.00 88 1007.9
20260904100835 70 69 0.0 4.0 0.00 0.00 0.00 88 1008.0
20260904100317 70 35 0.0 0.0 0.00 0.00 0.00 88 1008.0
20260904095828 71 80 0.0 1.0 0.00 0.00 0.00 88 1008.0
20260904095341 71 72 0.0 1.0 0.00 0.00 0.00 88 1007.9
20260904094842 71 5 0.0 1.0 0.00 0.00 0.00 88 1007.9
20260904094327 72 130 0.0 1.0 0.00 0.00 0.00 88 1007.7
20260904093824 72 44 0.0 1.0 0.00 0.00 0.00 88 1007.9
20260904093335 73 109 0.0 0.0 0.00 0.00 0.00 88 1007.6
20260904092825 73 76 0.0 0.0 0.00 0.00 0.00 88 1007.8
20260904092328 73 55 0.0 0.0 0.00 0.00 0.00 88 1007.7
20260904091856 73 130 0.0 0.0 0.00 0.00 0.00 88 1007.6
20260904091405 73 85 0.0 0.0 0.00 0.00 0.00 88 1007.8
20260904090818 73 76 0.0 0.0 0.00 0.00 0.00 88 1007.8
20260904090321 73 116 0.0 0.0 0.00 0.00 0.00 88 1007.7
20260904085831 73 49 0.0 0.0 0.00 0.00 0.00 88 1007.7
20260904085341 74 82 0.0 0.0 0.00 0.00 0.00 88 1007.7
20260904084844 74 25 0.0 0.0 0.00 0.00 0.00 88 1007.8
20260904084338 74 42 0.0 1.0 0.00 0.00 0.00 88 1007.7
20260904083838 74 34 0.0 1.0 0.00 0.00 0.00 88 1007.8
20260904083340 73 46 0.0 4.0 0.00 0.00 0.00 88 1007.5
20260904082844 73 22 0.0 3.0 0.00 0.00 0.00 88 1007.8
20260904082316 73 115 0.0 0.0 0.00 0.00 0.00 88 1007.3
20260904081829 73 126 0.0 0.0 0.00 0.00 0.00 88 1007.1
20260904081339 73 127 0.0 0.0 0.00 0.00 0.00 88 1007.0
20260904080821 73 128 0.0 0.0 0.00 0.00 0.00 88 1007.0
20260904080333 74 126 0.0 0.0 0.00 0.00 0.00 88 1006.9
20260904075817 74 126 0.0 0.0 0.00 0.00 0.00 88 1006.9
20260904075316 74 126 0.0 0.0 0.00 0.00 0.00 87 1006.9
20260904074820 74 126 0.0 0.0 0.00 0.00 0.00 87 1006.9
20260904074343 74 127 0.0 0.0 0.00 0.00 0.00 87 1006.9
20260904073827 74 127 0.0 0.0 0.00 0.00 0.00 87 1007.0
20260904073326 74 127 0.0 0.0 0.00 0.00 0.00 87 1007.0
20260904072827 74 127 0.0 0.0 0.00 0.00 0.00 87 1007.0
20260904072338 74 127 0.0 0.0 0.00 0.00 0.00 87 1007.0
20260904071828 74 127 0.0 0.0 0.00 0.00 0.00 87 1007.1
20260904071338 74 127 0.0 0.0 0.00 0.00 0.00 87 1007.0
20260904070840 74 127 0.0 0.0 0.00 0.00 0.00 87 1007.0
20260904070343 74 127 0.0 0.0 0.00 0.00 0.00 87 1007.0
20260904065831 74 127 0.0 0.0 0.00 0.00 0.00 87 1007.1
20260904065331 75 128 0.0 0.0 0.00 0.00 0.00 87 1007.2
20260904064816 75 128 0.0 0.0 0.00 0.00 0.00 87 1007.1
20260904064331 75 123 0.0 0.0 0.00 0.00 0.00 87 1007.1
20260904063834 75 123 0.0 0.0 0.00 0.00 0.00 87 1007.1
20260904063334 75 123 0.0 0.0 0.00 0.00 0.00 87 1007.0
20260904062821 75 122 0.0 0.0 0.00 0.00 0.00 87 1007.1
20260904062353 75 123 0.0 0.0 0.00 0.00 0.00 87 1007.1
20260904061903 75 114 0.0 0.0 0.00 0.00 0.00 86 1007.1
20260904061353 75 115 0.0 0.0 0.00 0.00 0.00 86 1007.1
20260904060837 75 118 0.0 0.0 0.00 0.00 0.00 86 1007.1
20260904060340 75 116 0.0 0.0 0.00 0.00 0.00 86 1007.1
20260904055825 75 126 0.0 0.0 0.00 0.00 0.00 86 1007.1
20260904055332 75 106 0.0 0.0 0.00 0.00 0.00 85 1007.1
20260904054905 75 112 0.0 0.0 0.00 0.00 0.00 85 1007.1
20260904054337 76 90 0.0 0.0 0.00 0.00 0.00 85 1007.1
20260904053841 76 103 0.0 0.0 0.00 0.00 0.00 85 1007.1
20260904053340 76 92 0.0 0.0 0.00 0.00 0.00 85 1007.1
20260904052830 76 107 0.0 0.0 0.00 0.00 0.00 84 1007.1
20260904052341 76 62 0.0 0.0 0.00 0.00 0.00 84 1007.1
20260904051844 76 110 0.0 0.0 0.00 0.00 0.00 84 1007.0
20260904051403 76 157 0.0 0.0 0.00 0.00 0.00 84 1007.0
20260904050816 76 67 0.0 0.0 0.00 0.00 0.00 84 1006.8
20260904050320 76 144 0.0 0.0 0.00 0.00 0.00 83 1006.9
20260904045828 77 49 0.0 0.0 0.00 0.00 0.00 83 1006.9
20260904045330 77 80 0.0 0.0 0.00 0.00 0.00 83 1006.8
20260904044819 77 117 0.0 0.0 0.00 0.00 0.00 83 1006.7
20260904044333 77 115 0.0 0.0 0.00 0.00 0.00 82 1006.7
20260904043847 77 120 0.0 0.0 0.00 0.00 0.00 82 1006.8
20260904043343 77 129 0.0 0.0 0.00 0.00 0.00 81 1006.8
20260904042831 77 112 0.0 0.0 0.00 0.00 0.00 81 1006.8
20260904042316 78 71 0.0 0.0 0.00 0.00 0.00 80 1006.8
20260904041818 78 66 0.0 0.0 0.00 0.00 0.00 80 1006.7
20260904041329 78 101 0.0 0.0 0.00 0.00 0.00 80 1006.7
20260904040832 78 104 0.0 0.0 0.00 0.00 0.00 79 1006.8
20260904040336 78 88 0.0 0.0 0.00 0.00 0.00 79 1006.8
20260904035820 79 120 0.0 0.0 0.00 0.00 0.00 79 1006.7
20260904035319 79 95 0.0 0.0 0.00 0.00 0.00 78 1006.8
20260904034831 79 92 0.0 0.0 0.00 0.00 0.00 78 1006.8
20260904034334 79 141 0.0 0.0 0.00 0.00 0.00 78 1006.6
20260904033838 80 121 0.0 0.0 0.00 0.00 0.00 78 1006.6
20260904033342 80 117 0.0 0.0 0.00 0.00 0.00 77 1006.7
20260904032823 80 131 0.0 0.0 0.00 0.00 0.00 77 1006.7
20260904032335 80 143 0.0 0.0 0.00 0.00 0.00 77 1006.8
20260904031819 80 144 0.0 0.0 0.00 0.00 0.00 76 1006.8
20260904031332 80 154 0.0 0.0 0.00 0.00 0.00 76 1006.7
20260904030831 81 155 0.0 0.0 0.00 0.00 0.00 76 1006.7
20260904030344 81 155 0.0 0.0 0.00 0.00 0.00 76 1006.6
20260904025830 81 155 0.0 0.0 0.00 0.00 0.00 75 1006.6
20260904025335 81 148 0.0 0.0 0.00 0.00 0.00 75 1006.5
20260904024835 81 198 0.0 0.0 0.00 0.00 0.00 75 1006.5
20260904024319 81 133 0.0 0.0 0.00 0.00 0.00 75 1006.5
20260904023830 81 173 0.0 0.0 0.00 0.00 0.00 74 1006.6
20260904023334 81 179 0.0 0.0 0.00 0.00 0.00 74 1006.4
20260904022817 81 126 0.0 0.0 0.00 0.00 0.00 74 1006.4
20260904022331 81 187 0.0 0.0 0.00 0.00 0.00 74 1006.4
20260904021816 82 159 0.0 0.0 0.00 0.00 0.00 73 1006.4
20260904021338 82 159 0.0 0.0 0.00 0.00 0.00 73 1006.3
20260904020829 82 159 0.0 0.0 0.00 0.00 0.00 72 1006.4
20260904020330 82 134 0.0 0.0 0.00 0.00 0.00 72 1006.3
20260904015836 82 147 0.0 0.0 0.00 0.00 0.00 72 1006.4
20260904015340 82 147 0.0 0.0 0.00 0.00 0.00 72 1006.3
20260904014844 82 140 0.0 0.0 0.00 0.00 0.00 71 1006.3
20260904014331 82 141 0.0 0.0 0.00 0.00 0.00 71 1006.3
20260904013832 82 121 0.0 0.0 0.00 0.00 0.00 71 1006.3
20260904013335 83 157 0.0 0.0 0.00 0.00 0.00 70 1006.2
20260904012851 83 174 0.0 0.0 0.00 0.00 0.00 70 1006.2
20260904012326 83 174 0.0 0.0 0.00 0.00 0.00 70 1006.1
20260904011830 83 172 0.0 0.0 0.00 0.00 0.00 69 1006.1
20260904011344 83 204 0.0 0.0 0.00 0.00 0.00 69 1006.2
20260904010829 83 215 0.0 0.0 0.00 0.00 0.00 68 1006.1
20260904010329 84 230 0.0 0.0 0.00 0.00 0.00 68 1006.0
20260904005904 84 232 0.0 0.0 0.00 0.00 0.00 68 1006.0
20260904005324 84 177 0.0 0.0 0.00 0.00 0.00 67 1006.0
20260904004838 84 161 0.0 0.0 0.00 0.00 0.00 67 1006.0
20260904004319 84 222 0.0 0.0 0.00 0.00 0.00 67 1006.0
20260904003851 84 135 0.0 0.0 0.00 0.00 0.00 66 1006.0
20260904003344 85 86 0.0 0.0 0.00 0.00 0.00 66 1006.0
20260904002839 85 136 0.0 0.0 0.00 0.00 0.00 66 1006.0
20260904002338 85 171 0.0 0.0 0.00 0.00 0.00 65 1005.9
20260904001842 85 190 0.0 0.0 0.00 0.00 0.00 65 1006.0
20260904001334 85 214 0.0 0.0 0.00 0.00 0.00 65 1006.1
20260904000838 85 199 0.0 0.0 0.00 0.00 0.00 65 1006.0
20260904000340 85 159 0.0 0.0 0.00 0.00 0.00 64 1006.0
20260903235833 85 203 0.0 0.0 0.00 0.00 0.00 64 1006.0
20260903235336 85 174 0.0 0.0 0.00 0.00 0.00 64 1006.1
20260903234839 85 167 0.0 0.0 0.00 0.00 0.00 64 1006.1
20260903234322 85 212 0.0 0.0 0.00 0.00 0.00 63 1006.1
20260903233853 86 205 0.0 0.0 0.00 0.00 0.00 63 1006.1
20260903233317 86 202 0.0 2.0 0.00 0.00 0.00 63 1006.0
20260903232834 86 204 0.0 2.0 0.00 0.00 0.00 63 1006.0
20260903232317 86 168 0.0 1.0 0.00 0.00 0.00 63 1005.8
20260903231843 86 174 0.0 1.0 0.00 0.00 0.00 62 1005.8
20260903231336 86 186 0.0 0.0 0.00 0.00 0.00 62 1005.6
20260903230839 86 215 0.0 0.0 0.00 0.00 0.00 63 1005.5
20260903230342 86 209 0.0 1.0 0.00 0.00 0.00 62 1005.5
20260903225834 86 153 0.0 1.0 0.00 0.00 0.00 62 1005.5
20260903225317 86 194 0.0 1.0 0.00 0.00 0.00 62 1005.3
20260903224820 86 155 0.0 1.0 0.00 0.00 0.00 62 1005.5
20260903224345 86 139 0.0 2.0 0.00 0.00 0.00 62 1005.2
20260903223844 86 204 0.0 2.0 0.00 0.00 0.00 62 1005.3
20260903223317 86 154 0.0 1.0 0.00 0.00 0.00 63 1005.4
20260903222822 86 215 0.0 1.0 0.00 0.00 0.00 63 1005.4
20260903222325 86 236 0.0 1.0 0.00 0.00 0.00 63 1005.4
20260903221838 86 223 0.0 1.0 0.00 0.00 0.00 63 1005.5
20260903221322 86 214 0.0 0.0 0.00 0.00 0.00 63 1005.6
20260903220824 86 177 0.0 1.0 0.00 0.00 0.00 63 1005.5
20260903220357 86 186 0.0 1.0 0.00 0.00 0.00 63 1005.7
20260903215824 86 220 0.0 1.0 0.00 0.00 0.00 63 1005.7
20260903215352 86 196 0.0 0.0 0.00 0.00 0.00 64 1005.8
20260903214833 86 207 0.0 0.0 0.00 0.00 0.00 65 1005.8
20260903214320 86 230 0.0 0.0 0.00 0.00 0.00 67 1005.8
20260903213849 85 220 0.0 0.0 0.00 0.00 0.00 67 1005.8
20260903213331 85 214 0.0 2.0 0.00 0.00 0.00 67 1005.7
20260903212825 85 196 0.0 2.0 0.00 0.00 0.00 66 1005.7
20260903212338 85 138 0.0 1.0 0.00 0.00 0.00 66 1005.6
20260903211841 86 190 0.0 1.0 0.00 0.00 0.00 67 1005.7
20260903211321 85 182 0.0 1.0 0.00 0.00 0.00 67 1005.6
20260903210825 85 202 0.0 2.0 0.00 0.00 0.00 66 1005.6
20260903210328 85 148 0.0 2.0 0.00 0.00 0.00 65 1005.6
20260903205817 86 180 0.0 5.0 0.00 0.00 0.00 64 1005.7
20260903205318 86 171 0.0 2.0 0.00 0.00 0.00 64 1005.7
20260903204819 86 239 0.0 2.0 0.00 0.00 0.00 65 1005.6
20260903204341 85 131 0.0 1.0 0.00 0.00 0.00 65 1005.5
20260903203845 85 230 0.0 1.0 0.00 0.00 0.00 65 1005.7
20260903203351 85 172 0.0 7.0 0.00 0.00 0.00 64 1005.8
20260903202844 86 229 0.0 7.0 0.00 0.00 0.00 63 1005.8
20260903202318 86 257 0.0 2.0 0.00 0.00 0.00 62 1005.8
20260903201822 86 142 0.0 4.0 0.00 0.00 0.00 62 1005.8
20260903201331 86 167 0.0 2.0 0.00 0.00 0.00 63 1005.9
20260903200901 86 169 0.0 4.0 0.00 0.00 0.00 61 1005.9
20260903200343 87 91 0.0 4.0 0.00 0.00 0.00 61 1006.1
20260903195817 87 199 0.0 2.0 0.00 0.00 0.00 61 1006.2
20260903195343 87 189 0.0 2.0 0.00 0.00 0.00 60 1006.3
20260903194847 87 190 0.0 4.0 0.00 0.00 0.00 60 1006.4
20260903194329 86 188 0.0 4.0 0.00 0.00 0.00 60 1006.5
20260903193833 86 156 0.0 4.0 0.00 0.00 0.00 60 1006.5